TimeEDT,TemperatureF,Dew PointF,Humidity,Sea Level PressureIn,VisibilityMPH,Wind Direction,Wind SpeedMPH,Gust SpeedMPH,PrecipitationIn,Events,Conditions,WindDirDegrees,DateUTC
12:51 AM,71.1,68.0,90,29.70,10.0,West,8.1,-,0.00,,Overcast,260,2013-09-13 04:51:00
1:51 AM,71.1,66.9,87,29.67,10.0,West,8.1,-,N/A,,Overcast,280,2013-09-13 05:51:00
2:51 AM,71.1,66.0,84,29.66,10.0,WNW,5.8,-,N/A,,Overcast,290,2013-09-13 06:51:00
3:51 AM,70.0,66.0,87,29.66,10.0,NW,9.2,-,0.01,Rain,Light Rain,310,2013-09-13 07:51:00
4:51 AM,69.1,66.0,90,29.66,5.0,NNW,6.9,-,0.08,Rain,Light Rain,340,2013-09-13 08:51:00
5:51 AM,69.1,64.9,87,29.66,10.0,WNW,3.5,-,0.00,,Overcast,300,2013-09-13 09:51:00
6:51 AM,68.0,64.9,90,29.67,10.0,West,6.9,-,N/A,,Mostly Cloudy,280,2013-09-13 10:51:00
7:51 AM,70.0,66.0,87,29.68,10.0,West,6.9,-,N/A,,Mostly Cloudy,260,2013-09-13 11:51:00
8:51 AM,73.0,64.0,73,29.68,10.0,NW,10.4,-,N/A,,Mostly Cloudy,310,2013-09-13 12:51:00
9:51 AM,73.9,60.1,62,29.68,10.0,NNW,10.4,17.3,N/A,,Mostly Cloudy,340,2013-09-13 13:51:00
10:51 AM,75.0,59.0,57,29.68,10.0,NW,13.8,-,N/A,,Mostly Cloudy,320,2013-09-13 14:51:00
11:51 AM,73.9,55.9,53,29.69,10.0,NW,15.0,-,N/A,,Mostly Cloudy,320,2013-09-13 15:51:00
12:51 PM,73.0,55.9,55,29.69,10.0,NW,15.0,-,N/A,,Mostly Cloudy,310,2013-09-13 16:51:00
1:51 PM,75.9,57.0,52,29.67,10.0,NW,12.7,-,0.00,,Mostly Cloudy,320,2013-09-13 17:51:00
2:51 PM,78.1,55.0,45,29.67,10.0,WNW,15.0,20.7,N/A,,Mostly Cloudy,290,2013-09-13 18:51:00
3:51 PM,78.1,53.1,42,29.67,10.0,West,6.9,-,N/A,,Scattered Clouds,280,2013-09-13 19:51:00
4:51 PM,75.9,54.0,46,29.68,10.0,NW,19.6,25.3,N/A,,Scattered Clouds,320,2013-09-13 20:51:00
5:51 PM,75.9,53.1,45,29.71,10.0,NNW,16.1,-,N/A,,Mostly Cloudy,330,2013-09-13 21:51:00
6:24 PM,71.6,55.4,57,29.73,10.0,North,17.3,26.5,N/A,,Mostly Cloudy,10,2013-09-13 22:24:00
6:51 PM,71.1,54.0,55,29.74,10.0,North,17.3,-,N/A,,Mostly Cloudy,350,2013-09-13 22:51:00
7:51 PM,69.1,50.0,51,29.78,10.0,NNW,20.7,26.5,N/A,,Scattered Clouds,330,2013-09-13 23:51:00
8:51 PM,66.9,48.9,52,29.80,10.0,NW,15.0,23.0,N/A,,Partly Cloudy,320,2013-09-14 00:51:00
9:51 PM,64.0,48.0,56,29.83,10.0,NNW,18.4,-,N/A,,Partly Cloudy,330,2013-09-14 01:51:00
10:51 PM,62.1,48.0,60,29.85,10.0,NNW,15.0,-,N/A,,Partly Cloudy,330,2013-09-14 02:51:00
11:51 PM,61.0,48.0,62,29.86,10.0,NW,13.8,-,N/A,,Partly Cloudy,320,2013-09-14 03:51:00